GW0416 Weather Reports


time (UTC)temp
C
wind
direction
speed
KPH
gust
KPH
rain 1hr
cm
rain 24hr
cm
rain mn
cm
humidity
%
barometer
mb
20260510110031 5 153 3.2 8.0 0.00 0.00 0.00 83 1018.1
20260510104532 6 153 4.8 11.3 0.00 0.00 0.00 81 1018.2
20260510103029 6 154 9.7 14.5 0.00 0.00 0.00 81 1018.3
20260510101529 6 142 9.7 14.5 0.00 0.00 0.00 83 1018.3
20260510100031 6 126 8.0 11.3 0.00 0.00 0.00 83 1018.4
20260510094535 6 117 6.4 11.3 0.00 0.00 0.00 82 1018.3
20260510093030 6 134 8.0 11.3 0.00 0.00 0.00 82 1018.4
20260510091532 6 139 6.4 12.9 0.00 0.00 0.00 81 1018.3
20260510090029 7 130 8.0 11.3 0.00 0.00 0.00 81 1018.4
20260510084533 7 101 8.0 11.3 0.00 0.00 0.00 83 1018.7
20260510083028 7 102 6.4 9.7 0.00 0.00 0.00 83 1018.7
20260510081530 7 69 8.0 12.9 0.00 0.00 0.00 83 1018.7
20260510080034 7 43 4.8 8.0 0.00 0.00 0.00 83 1018.9
20260510074530 6 38 6.4 8.0 0.00 0.00 0.00 83 1018.9
20260510073030 6 37 6.4 8.0 0.00 0.00 0.00 82 1018.9
20260510071529 6 13 4.8 8.0 0.00 0.00 0.00 82 1019.0
20260510070028 7 11 6.4 8.0 0.00 0.00 0.00 79 1018.8
20260510064544 8 26 8.0 12.9 0.00 0.00 0.00 78 1018.8
20260510063032 7 115 3.2 17.7 0.00 0.00 0.00 81 1018.8
20260510061533 8 44 4.8 9.7 0.00 0.00 0.00 76 1018.9
20260510060030 8 167 6.4 12.9 0.00 0.00 0.00 77 1018.7
20260510054528 8 167 8.0 14.5 0.00 0.00 0.00 76 1018.8
20260510053041 9 152 11.3 14.5 0.00 0.00 0.00 76 1018.7
20260510051545 8 156 9.7 16.1 0.00 0.00 0.00 77 1018.6
20260510050031 8 141 9.7 14.5 0.00 0.00 0.00 77 1018.7
20260510044530 9 154 9.7 16.1 0.00 0.00 0.00 77 1018.6
20260510043030 9 136 11.3 17.7 0.00 0.00 0.00 76 1018.6
20260510041531 9 144 9.7 14.5 0.00 0.00 0.00 75 1018.6
20260510040036 10 130 11.3 16.1 0.00 0.00 0.00 73 1018.6
20260510034532 10 132 12.9 16.1 0.00 0.00 0.00 72 1018.4
20260510033032 10 130 9.7 14.5 0.00 0.00 0.00 70 1018.3
20260510031531 11 136 11.3 14.5 0.00 0.00 0.00 67 1018.1
20260510030031 12 113 9.7 14.5 0.00 0.00 0.00 66 1018.1
20260510024530 12 113 11.3 16.1 0.00 0.00 0.00 62 1017.8
20260510023030 13 117 12.9 16.1 0.00 0.00 0.00 60 1017.6
20260510021533 14 102 11.3 16.1 0.00 0.00 0.00 57 1017.6
20260510020032 15 121 11.3 14.5 0.00 0.00 0.00 56 1017.6
20260510014530 15 84 8.0 17.7 0.00 0.00 0.00 54 1017.6
20260510013034 16 64 11.3 17.7 0.00 0.00 0.00 53 1017.7
20260510011532 16 51 6.4 14.5 0.00 0.00 0.00 49 1017.6
20260510010030 17 266 11.3 19.3 0.00 0.00 0.00 48 1017.8
20260510004531 17 243 8.0 19.3 0.00 0.00 0.00 45 1017.8
20260510003031 17 227 16.1 22.5 0.00 0.00 0.00 44 1017.7
20260510001531 17 243 14.5 20.9 0.00 0.00 0.00 43 1017.7
20260510000031 17 251 16.1 24.1 0.00 0.00 0.00 42 1017.6
20260509234530 17 204 8.0 12.9 0.00 0.00 0.00 42 1017.5
20260509233032 17 248 8.0 12.9 0.00 0.00 0.00 41 1017.7
20260509231533 17 166 3.2 9.7 0.00 0.00 0.00 41 1017.7
20260509230032 17 257 6.4 12.9 0.00 0.00 0.00 42 1017.7
20260509224531 17 198 6.4 12.9 0.00 0.00 0.00 42 1017.8
20260509223028 16 244 4.8 16.1 0.00 0.00 0.00 42 1018.0
20260509221530 17 291 4.8 11.3 0.00 0.00 0.00 41 1017.9
20260509220038 16 239 8.0 19.3 0.00 0.00 0.00 41 1017.9
20260509214532 16 324 4.8 12.9 0.00 0.00 0.00 40 1018.0
20260509213033 16 242 14.5 19.3 0.00 0.00 0.00 41 1018.1
20260509211531 16 240 3.2 20.9 0.00 0.00 0.00 40 1018.1
20260509210031 16 263 6.4 14.5 0.00 0.00 0.00 40 1018.1
20260509204531 17 187 0.0 11.3 0.00 0.00 0.00 39 1018.1
20260509203036 16 269 8.0 22.5 0.00 0.00 0.00 39 1018.0
20260509201530 16 0 1.6 11.3 0.00 0.00 0.00 40 1017.9
20260509200038 16 146 4.8 17.7 0.00 0.00 0.00 40 1017.9
20260509194545 16 307 6.4 12.9 0.00 0.00 0.00 40 1018.0
20260509193036 16 232 12.9 19.3 0.00 0.00 0.00 40 1018.2
20260509191533 16 60 1.6 14.5 0.00 0.00 0.00 40 1018.1
20260509190032 16 257 4.8 16.1 0.00 0.00 0.00 41 1018.1
20260509184536 16 37 3.2 9.7 0.00 0.00 0.00 39 1018.0
20260509183048 16 213 1.6 16.1 0.00 0.00 0.00 40 1018.1
20260509181530 16 300 8.0 14.5 0.00 0.00 0.00 39 1018.0
20260509180031 16 95 4.8 9.7 0.00 0.00 0.00 39 1018.0
20260509174543 15 276 3.2 14.5 0.00 0.00 0.00 41 1017.9
20260509173030 15 295 3.2 16.1 0.00 0.00 0.00 41 1017.8
20260509171540 15 271 8.0 17.7 0.00 0.00 0.00 42 1017.8
20260509170033 15 168 3.2 14.5 0.00 0.00 0.00 41 1017.6
20260509164534 15 342 16.1 22.5 0.00 0.00 0.00 39 1017.6
20260509163043 15 350 11.3 20.9 0.00 0.00 0.00 39 1017.5
20260509161541 15 35 9.7 17.7 0.00 0.00 0.00 43 1017.4
20260509160030 14 42 3.2 17.7 0.00 0.00 0.00 45 1017.2
20260509154530 14 360 8.0 16.1 0.00 0.00 0.00 47 1017.1
20260509153044 13 49 8.0 14.5 0.00 0.00 0.00 48 1017.0
20260509151536 13 57 4.8 12.9 0.00 0.00 0.00 50 1017.1
20260509150039 12 36 4.8 9.7 0.00 0.00 0.00 51 1016.9
20260509144531 12 23 6.4 8.0 0.00 0.00 0.00 52 1016.8
20260509143034 11 322 1.6 6.4 0.00 0.00 0.00 54 1016.7
20260509141530 11 23 4.8 12.9 0.00 0.00 0.00 55 1016.7
20260509140035 10 20 8.0 12.9 0.00 0.00 0.00 55 1016.5
20260509134532 10 23 11.3 16.1 0.00 0.00 0.00 56 1016.4
20260509133032 10 33 9.7 14.5 0.00 0.00 0.00 57 1016.3
20260509131532 10 22 12.9 20.9 0.00 0.00 0.00 57 1016.2
20260509130031 9 17 8.0 12.9 0.00 0.00 0.00 57 1016.0
20260509124532 9 36 6.4 12.9 0.00 0.00 0.00 57 1015.8
20260509123035 10 279 4.8 11.3 0.00 0.00 0.00 57 1015.6
20260509121533 9 360 14.5 20.9 0.00 0.00 0.00 57 1015.5
20260509120031 10 26 4.8 9.7 0.00 0.00 0.00 57 1015.3
20260509114530 10 257 3.2 6.4 0.00 0.00 0.00 56 1015.1
20260509113030 10 194 6.4 9.7 0.00 0.00 0.00 56 1015.0
20260509111530 10 123 4.8 17.7 0.00 0.00 0.00 55 1014.9